When you browse on this site, cookies collect data to enhance your experience and personalize the content and advertising you see.
Visit our Privacy Policy to learn more. By continuing to use the site, you agree to this use of cookies and data.
  • In Hungary
  • List of Countries
  • For 7 days
  • Water Temperature
  • Weather Map
  • News
  • Weather Widgets
  • user-avatar
    Login

    Hourly Weather Azarodnya

    Today, 21 January, Tuesday

    Time Temperature Precipitation Wind Pressure Humidity
    00:00 -2°C° 0 mm 5 mps 741 mmHg 88%
    01:00 -2°C° 0 mm 5 mps 740 mmHg 89%
    02:00 -2°C° 0 mm 6 mps 739 mmHg 91%
    03:00 -2°C° 0.2 mm 6 mps 738 mmHg 90%
    04:00 -2°C° 0.2 mm 6 mps 737 mmHg 89%
    05:00 -1°C° 0.2 mm 6 mps 736 mmHg 89%
    06:00 -1°C° 0 mm 6 mps 735 mmHg 89%
    07:00 -1°C° 0 mm 6 mps 735 mmHg 89%
    08:00 -1°C° 0 mm 6 mps 734 mmHg 87%
    09:00 -1°C° 0.1 mm 6 mps 733 mmHg 87%
    10:00 +1°C° 0.1 mm 6 mps 733 mmHg 88%
    11:00 +1°C° 0.1 mm 6 mps 732 mmHg 89%
    12:00 +1°C° 0.1 mm 6 mps 732 mmHg 88%
    13:00 +2°C° 0.1 mm 6 mps 731 mmHg 88%
    14:00 +2°C° 0.1 mm 6 mps 730 mmHg 88%
    15:00 +2°C° 0.8 mm 7 mps 730 mmHg 90%
    16:00 +2°C° 0.8 mm 7 mps 729 mmHg 91%
    17:00 +2°C° 0.8 mm 7 mps 728 mmHg 92%
    18:00 +2°C° 0.2 mm 7 mps 729 mmHg 85%
    19:00 0°C° 0.2 mm 7 mps 729 mmHg 79%
    20:00 -1°C° 0.2 mm 7 mps 729 mmHg 72%
    21:00 -1°C° 0 mm 7 mps 729 mmHg 74%
    22:00 -2°C° 0 mm 6 mps 730 mmHg 75%
    23:00 -3°C° 0 mm 6 mps 730 mmHg 76%

    Tomorrow, 22 January, Wednesday

    Time Temperature Precipitation Wind Pressure Humidity
    00:00 -3°C° 0 mm 6 mps 729 mmHg 77%
    01:00 -3°C° 0 mm 6 mps 729 mmHg 77%
    02:00 -3°C° 0 mm 6 mps 729 mmHg 78%
    03:00 -2°C° 0 mm 5 mps 728 mmHg 79%
    04:00 -2°C° 0 mm 5 mps 727 mmHg 80%
    05:00 -2°C° 0 mm 5 mps 727 mmHg 81%
    06:00 -2°C° 0.1 mm 5 mps 726 mmHg 81%
    07:00 -2°C° 0.1 mm 5 mps 726 mmHg 82%
    08:00 -2°C° 0.1 mm 5 mps 725 mmHg 82%
    09:00 -2°C° 0.2 mm 5 mps 725 mmHg 80%
    10:00 -2°C° 0.2 mm 5 mps 725 mmHg 79%
    11:00 -2°C° 0.2 mm 5 mps 724 mmHg 77%
    12:00 -2°C° 0.2 mm 5 mps 724 mmHg 74%
    13:00 -2°C° 0.2 mm 5 mps 724 mmHg 71%
    14:00 -2°C° 0.2 mm 5 mps 724 mmHg 68%
    15:00 -4°C° 0 mm 5 mps 725 mmHg 70%
    16:00 -4°C° 0 mm 5 mps 725 mmHg 72%
    17:00 -5°C° 0 mm 5 mps 726 mmHg 75%
    18:00 -5°C° 0 mm 5 mps 726 mmHg 75%
    19:00 -5°C° 0 mm 5 mps 727 mmHg 75%
    20:00 -5°C° 0 mm 6 mps 728 mmHg 76%
    21:00 -5°C° 0 mm 6 mps 728 mmHg 76%
    22:00 -6°C° 0 mm 6 mps 728 mmHg 77%
    23:00 -6°C° 0 mm 6 mps 729 mmHg 77%

    Day after tomorrow, 23 January, Thursday

    Time Temperature Precipitation Wind Pressure Humidity
    00:00 -6°C° 0 mm 6 mps 729 mmHg 74%
    01:00 -8°C° 0 mm 6 mps 730 mmHg 72%
    02:00 -8°C° 0 mm 6 mps 731 mmHg 69%
    03:00 -9°C° 0 mm 6 mps 731 mmHg 66%
    04:00 -9°C° 0 mm 6 mps 732 mmHg 63%
    05:00 -9°C° 0 mm 6 mps 732 mmHg 60%
    06:00 -9°C° 0 mm 6 mps 733 mmHg 59%
    07:00 -9°C° 0 mm 6 mps 733 mmHg 58%
    08:00 -9°C° 0 mm 6 mps 734 mmHg 56%
    09:00 -9°C° 0 mm 6 mps 734 mmHg 54%
    10:00 -8°C° 0 mm 6 mps 734 mmHg 52%
    11:00 -6°C° 0 mm 6 mps 734 mmHg 49%
    12:00 -6°C° 0 mm 6 mps 735 mmHg 52%
    13:00 -6°C° 0 mm 6 mps 735 mmHg 54%
    14:00 -6°C° 0 mm 6 mps 735 mmHg 57%
    15:00 -6°C° 0 mm 6 mps 735 mmHg 59%
    16:00 -6°C° 0 mm 6 mps 735 mmHg 61%
    17:00 -6°C° 0 mm 5 mps 736 mmHg 63%
    18:00 -7°C° 0 mm 4 mps 736 mmHg 66%
    19:00 -6°C° 0 mm 3 mps 736 mmHg 68%
    20:00 -6°C° 0 mm 3 mps 737 mmHg 70%
    21:00 -6°C° 0 mm 3 mps 737 mmHg 73%
    22:00 -6°C° 0 mm 3 mps 737 mmHg 75%
    23:00 -6°C° 0 mm 3 mps 737 mmHg 78%

    24 January, Friday

    Time Temperature Precipitation Wind Pressure Humidity
    00:00 -6°C° 0 mm 3 mps 737 mmHg 79%
    01:00 -6°C° 0 mm 3 mps 736 mmHg 79%
    02:00 -5°C° 0 mm 3 mps 736 mmHg 80%
    03:00 -5°C° 0 mm 4 mps 735 mmHg 81%
    04:00 -5°C° 0 mm 4 mps 735 mmHg 83%
    05:00 -4°C° 0 mm 4 mps 734 mmHg 84%
    06:00 -4°C° 0 mm 4 mps 734 mmHg 84%
    07:00 -4°C° 0 mm 4 mps 733 mmHg 84%
    08:00 -3°C° 0 mm 4 mps 733 mmHg 83%
    09:00 -3°C° 0.1 mm 4 mps 733 mmHg 87%
    10:00 -3°C° 0.1 mm 4 mps 732 mmHg 91%
    11:00 -2°C° 0.1 mm 4 mps 732 mmHg 95%
    12:00 -2°C° 0 mm 4 mps 732 mmHg 94%
    13:00 -1°C° 0 mm 4 mps 732 mmHg 94%
    14:00 0°C° 0 mm 4 mps 732 mmHg 93%
    15:00 0°C° 0 mm 4 mps 732 mmHg 93%
    16:00 0°C° 0 mm 4 mps 732 mmHg 93%
    17:00 0°C° 0 mm 4 mps 732 mmHg 93%
    18:00 0°C° 0.1 mm 4 mps 732 mmHg 94%
    19:00 +1°C° 0.1 mm 3 mps 732 mmHg 95%
    20:00 +1°C° 0.1 mm 3 mps 732 mmHg 96%
    21:00 +1°C° 0.4 mm 3 mps 732 mmHg 96%
    22:00 +1°C° 0.4 mm 3 mps 732 mmHg 96%
    23:00 +1°C° 0.4 mm 3 mps 732 mmHg 96%

    25 January, Saturday

    Time Temperature Precipitation Wind Pressure Humidity
    00:00 +1°C° 0.2 mm 3 mps 732 mmHg 96%
    01:00 +1°C° 0.2 mm 3 mps 732 mmHg 96%
    02:00 +1°C° 0.2 mm 3 mps 732 mmHg 96%
    03:00 +1°C° 0 mm 3 mps 732 mmHg 96%
    04:00 +1°C° 0 mm 3 mps 732 mmHg 97%
    05:00 +2°C° 0 mm 2 mps 732 mmHg 97%
    06:00 +2°C° 0.1 mm 2 mps 732 mmHg 97%
    07:00 +2°C° 0.1 mm 2 mps 732 mmHg 97%
    08:00 +2°C° 0.1 mm 2 mps 732 mmHg 97%
    09:00 +2°C° 0.2 mm 2 mps 732 mmHg 97%
    10:00 +1°C° 0.2 mm 3 mps 732 mmHg 97%
    11:00 +1°C° 0.2 mm 3 mps 732 mmHg 97%
    12:00 +1°C° 0.2 mm 3 mps 732 mmHg 97%
    13:00 +1°C° 0.2 mm 3 mps 732 mmHg 97%
    14:00 +1°C° 0.2 mm 3 mps 732 mmHg 97%
    15:00 +2°C° 0.3 mm 2 mps 732 mmHg 97%
    16:00 +2°C° 0.3 mm 2 mps 733 mmHg 97%
    17:00 +2°C° 0.3 mm 2 mps 733 mmHg 98%
    18:00 +2°C° 0.1 mm 2 mps 733 mmHg 97%
    19:00 +1°C° 0.1 mm 2 mps 733 mmHg 97%
    20:00 +1°C° 0.1 mm 2 mps 733 mmHg 97%
    21:00 +1°C° 0 mm 2 mps 733 mmHg 97%
    22:00 +1°C° 0 mm 2 mps 734 mmHg 97%
    23:00 +1°C° 0 mm 2 mps 734 mmHg 97%

    26 January, Sunday

    Time Temperature Precipitation Wind Pressure Humidity
    00:00 +1°C° 0 mm 2 mps 734 mmHg 96%
    01:00 +1°C° 0 mm 2 mps 734 mmHg 96%
    02:00 +1°C° 0 mm 2 mps 734 mmHg 95%
    03:00 +1°C° 0 mm 2 mps 734 mmHg 95%
    04:00 -1°C° 0 mm 2 mps 734 mmHg 95%
    05:00 -1°C° 0 mm 2 mps 734 mmHg 95%
    06:00 -1°C° 0 mm 2 mps 734 mmHg 95%
    07:00 -1°C° 0 mm 2 mps 734 mmHg 95%
    08:00 -1°C° 0 mm 2 mps 734 mmHg 95%
    09:00 +1°C° 0 mm 2 mps 735 mmHg 93%
    10:00 +1°C° 0 mm 2 mps 735 mmHg 91%
    11:00 +1°C° 0 mm 2 mps 735 mmHg 90%
    12:00 +1°C° 0 mm 2 mps 735 mmHg 91%
    13:00 +2°C° 0 mm 2 mps 734 mmHg 93%
    14:00 +2°C° 0 mm 2 mps 734 mmHg 95%
    15:00 +2°C° 0.1 mm 2 mps 734 mmHg 96%
    16:00 +1°C° 0.1 mm 2 mps 734 mmHg 96%
    17:00 +1°C° 0.1 mm 2 mps 734 mmHg 97%
    18:00 +1°C° 0 mm 2 mps 734 mmHg 96%
    19:00 -1°C° 0 mm 2 mps 734 mmHg 95%
    20:00 -1°C° 0 mm 2 mps 734 mmHg 94%
    21:00 -1°C° 0 mm 2 mps 734 mmHg 95%
    22:00 -1°C° 0 mm 2 mps 734 mmHg 95%
    23:00 -1°C° 0 mm 2 mps 734 mmHg 95%
    Show more